Вернуться в каталог

COSMOS 1410

АктивенНавигацияPO
NORAD 13589·PAYLOAD·🇷🇺 Russia

Запущен Sep 24, 1982 с Plesetsk Cosmodrome

Loading…

Ближайшие Пролёты (ближайшие 24 часа)

TLE

СвежийSource: Space-Track

Эпоха: Sep 14, 2026, 09:12 UTC

1 13589U 82096A   26257.38343711  .00000011  00000-0  57661-5 0  9995
2 13589  82.6068  57.5092 0007065 113.1182 270.7422 12.42353534995033

Отслеживайте COSMOS 1410 в реальном времени с AllMySat

Download on the App Store